Location: Newark
(45.4422°N, 16.2769°E)
Time: 05:26:33
(UTC+00:00)

Tiros 1 despin weight - Pass Details

Date: 17 December 2019
Orbit: 593 x 643 km, 48.2° (Epoch: 18 January)

Event Time Altitude Azimuth Distance (km) Brightness Sun altitude
Rises 01:41:19 0° 234° (SW) 2,908 - -49.1°
Reaches altitude 10° 01:43:40 10° 230° (SW) 1,996 - -48.7°
Maximum altitude 01:48:10 57° 152° (SSE) 731 - -48.0°
Drops below altitude 10° 01:52:36 10° 74° (ENE) 1,972 - -47.2°
Exits shadow 01:54:33 - 71° (ENE) 2,727 ? -46.9°
Sets 01:54:55 0° 70° (ENE) 2,870 ? -46.8°
